Погода в Карасуке

Россия / Новосибирская область     53°44′03″N   78°02′32″E
темп.,
°C
ветер,
м/с
пор.,
м/с
влажн.,
%
обл.,
%
осадки,
мм/ч
давл.,
гПа
погр.,
м
19 января, ср
ср1901:00−15юз499749 0.0 1028109
04:00−17юз369851 0.0 102873
07:00−18юз359956 0.0 102854
10:00−20юз3310061 0.0 102933
13:00−14юз35965 0.0 1028101
16:00−13юз24945 0.0 102889
19:00−18юз229919 0.0 102925
22:00−19юз2210035 0.0 103034
20 января, чт
чт2001:00−20юз3310047 0.0 103034
04:00−19юз34998 0.0 103151
07:00−21юз2210031 0.0 103130
10:00−22ююз2210039 0.0 103329
13:00−15юз35935 0.0 1034108
16:00−13юз24915 0.0 1033101
19:00−18ююз33975 0.0 103418
22:00−21ююз2210079 0.0 103513
21 января, пт
пт2101:00−22ю2210052 0.0 103411
04:00−22ююв2210057 0.0 103411
07:00−23ю2210059 0.0 10349
10:00−23юв2210053 0.0 103312
13:00−15юв22945 0.0 103363
16:00−14в119484 0.0 10329
19:00−19в229892 0.0 10329
22:00−21вюв1110016 0.0 10339
22 января, сб
сб2201:00−21вюв111005 0.0 10349
04:00−22св111005 0.0 10349
07:00−23всв111005 0.0 10349
10:00−23вюв1110044 0.0 10359
13:00−15вюв11885 0.0 103553
16:00−13всв009111 0.0 10359
19:00−18св229592 0.0 103610
22:00−20в11995 0.0 10379
23 января, вс
вс2301:00−21вюв111005 0.0 10379
04:00−22всв1110025 0.0 10389
07:00−22всв111005 0.0 10389
10:00−23всв1110023 0.0 10399
13:00−15в12925 0.0 103959
16:00−13в00935 0.0 10399
19:00−19ссв11985 0.0 10409
22:00−21св11995 0.0 10409